Погода в Лекечене

Россия / Республика Саха (Якутия)     63°03′38″N   123°58′50″E
темп.,
°C
ветер,
м/с
пор.,
м/с
влажн.,
%
обл.,
%
осадки,
мм/ч
давл.,
гПа
погр.,
м
27 февраля, сб
сб2700:00−29вюв3797100 0.0 1029176
03:00−30вюв3697100 0.0 1028140
06:00−32вюв379818 0.0 1027135
09:00−32в379738 0.0 1027175
12:00−28в3695100 0.0 1025274
15:00−26в3695100 0.0 1023372
18:00−27всв2597100 0.0 1023255
21:00−27всв2399100 0.6 1022190
28 февраля, вс
вс2800:00−28с1299100 0.4 102246
03:00−28зсз3598100 0.6 1021274
06:00−29зсз4797100 0.3 1023393
09:00−29зсз5996100 0.6 1023455
12:00−27зсз5994100 0.2 1025590
15:00−26зсз51094100 0.3 1025664
18:00−27зсз51194100 0.2 1027635
21:00−28зсз51294100 0.3 1028595
1 марта, пн
пн100:00−28зсз51195100 0.1 1028538
03:00−28зсз51093100 0.2 1028493
06:00−30зсз51093100 0.0 1029412
09:00−30з51092100 0.0 1029415
12:00−30з4992100 0.0 1029409
15:00−28з4791100 0.0 1028464
18:00−29з3793100 0.0 1029377
21:00−31з2796100 0.0 1028224
2 марта, вт
вт200:00−32з2498100 0.0 1028107
03:00−33з2498100 0.0 102892
06:00−33з2297100 0.0 102843
09:00−34з2397100 0.0 102788
12:00−30сз2294100 0.0 1027291
15:00−29ссз1192100 0.1 1026346
18:00−33с1198100 0.0 102619
21:00−37с0010074 0.0 102719
3 марта, ср
ср300:00−38з1110063 0.0 102719
03:00−38сз1110058 0.0 102719
06:00−39зсз1110063 0.0 102618
09:00−37зсз229871 0.0 102652
12:00−33зсз2397100 0.0 1025285
15:00−31зсз3494100 0.1 1024410
18:00−31зсз3696100 0.1 1024408
21:00−31зсз4896100 0.1 1023453